When you browse on this site, cookies collect data to enhance your experience and personalize the content and advertising you see.
Visit our Privacy Policy to learn more. By continuing to use the site, you agree to this use of cookies and data.
  • Em Portugal
  • Lista de países
  • Para 7 dias
  • Temperatura da água
  • Mapas de satélite
  • Mapa do tempo
  • Widgets de tempo
  • user-avatar
    Iniciar Sessão

    Previsão horária em Kotonu

    Hoje, 16 Fevereiro, Sábado

    Tempo Temperatura Precipitação Vento Pressão Humidade
    00:00 +30°C° 0 mm 2 m/s 759 mmHg 76%
    01:00 +30°C° 0 mm 2 m/s 758 mmHg 78%
    02:00 +29°C° 0 mm 2 m/s 758 mmHg 79%
    03:00 +29°C° 0 mm 2 m/s 758 mmHg 81%
    04:00 +29°C° 0 mm 2 m/s 758 mmHg 83%
    05:00 +28°C° 0 mm 1 m/s 758 mmHg 85%
    06:00 +28°C° 0 mm 1 m/s 758 mmHg 86%
    07:00 +30°C° 0 mm 1 m/s 759 mmHg 74%
    08:00 +33°C° 0 mm 1 m/s 759 mmHg 62%
    09:00 +33°C° 0 mm 0 m/s 759 mmHg 51%
    10:00 +36°C° 0 mm 1 m/s 759 mmHg 43%
    11:00 +38°C° 0 mm 2 m/s 759 mmHg 36%
    12:00 +40°C° 0 mm 3 m/s 758 mmHg 29%
    13:00 +40°C° 0 mm 4 m/s 758 mmHg 35%
    14:00 +39°C° 0 mm 5 m/s 757 mmHg 41%
    15:00 +38°C° 0 mm 6 m/s 756 mmHg 46%
    16:00 +35°C° 0 mm 6 m/s 756 mmHg 52%
    17:00 +34°C° 0 mm 6 m/s 757 mmHg 57%
    18:00 +32°C° 0 mm 5 m/s 757 mmHg 62%
    19:00 +32°C° 0 mm 5 m/s 757 mmHg 66%
    20:00 +32°C° 0 mm 5 m/s 758 mmHg 70%
    21:00 +30°C° 0 mm 5 m/s 759 mmHg 74%
    22:00 +30°C° 0 mm 5 m/s 758 mmHg 75%
    23:00 +30°C° 0 mm 5 m/s 758 mmHg 76%

    Amanhã, 17 Fevereiro, Domingo

    Tempo Temperatura Precipitação Vento Pressão Humidade
    00:00 +29°C° 0 mm 5 m/s 758 mmHg 77%
    01:00 +29°C° 0 mm 4 m/s 758 mmHg 79%
    02:00 +29°C° 0 mm 4 m/s 758 mmHg 81%
    03:00 +29°C° 0 mm 4 m/s 757 mmHg 82%
    04:00 +28°C° 0 mm 3 m/s 758 mmHg 84%
    05:00 +28°C° 0 mm 2 m/s 758 mmHg 85%
    06:00 +28°C° 0 mm 2 m/s 758 mmHg 86%
    07:00 +29°C° 0 mm 2 m/s 758 mmHg 78%
    08:00 +31°C° 0 mm 1 m/s 759 mmHg 70%
    09:00 +33°C° 0 mm 1 m/s 759 mmHg 62%
    10:00 +35°C° 0 mm 2 m/s 759 mmHg 56%
    11:00 +37°C° 0 mm 2 m/s 759 mmHg 50%
    12:00 +38°C° 0 mm 3 m/s 759 mmHg 43%
    13:00 +38°C° 0 mm 4 m/s 758 mmHg 46%
    14:00 +37°C° 0 mm 4 m/s 757 mmHg 48%
    15:00 +37°C° 0 mm 5 m/s 756 mmHg 50%
    16:00 +35°C° 0 mm 5 m/s 756 mmHg 55%
    17:00 +34°C° 0 mm 5 m/s 756 mmHg 61%
    18:00 +32°C° 0 mm 5 m/s 756 mmHg 66%
    19:00 +32°C° 0 mm 5 m/s 757 mmHg 69%
    20:00 +32°C° 0 mm 5 m/s 758 mmHg 71%
    21:00 +30°C° 0 mm 5 m/s 758 mmHg 74%
    22:00 +30°C° 0 mm 4 m/s 758 mmHg 75%
    23:00 +30°C° 0 mm 4 m/s 758 mmHg 75%

    Depois de amanhã, 18 Fevereiro, Segunda-feira

    Tempo Temperatura Precipitação Vento Pressão Humidade
    00:00 +30°C° 0 mm 4 m/s 758 mmHg 75%
    01:00 +30°C° 0 mm 4 m/s 757 mmHg 76%
    02:00 +29°C° 0 mm 4 m/s 757 mmHg 77%
    03:00 +29°C° 0 mm 5 m/s 756 mmHg 78%
    04:00 +29°C° 0 mm 4 m/s 757 mmHg 80%
    05:00 +29°C° 0 mm 4 m/s 757 mmHg 81%
    06:00 +29°C° 0 mm 4 m/s 757 mmHg 83%
    07:00 +30°C° 0 mm 4 m/s 757 mmHg 78%
    08:00 +30°C° 0 mm 4 m/s 758 mmHg 73%
    09:00 +31°C° 0 mm 3 m/s 759 mmHg 68%
    10:00 +34°C° 0 mm 4 m/s 758 mmHg 62%
    11:00 +36°C° 0 mm 4 m/s 758 mmHg 55%
    12:00 +37°C° 0 mm 5 m/s 757 mmHg 48%
    13:00 +37°C° 0 mm 5 m/s 756 mmHg 49%
    14:00 +37°C° 0 mm 5 m/s 756 mmHg 50%
    15:00 +38°C° 0 mm 6 m/s 755 mmHg 51%
    16:00 +35°C° 0 mm 6 m/s 755 mmHg 57%
    17:00 +34°C° 0 mm 6 m/s 755 mmHg 62%
    18:00 +32°C° 0 mm 6 m/s 755 mmHg 68%
    19:00 +32°C° 0 mm 6 m/s 756 mmHg 71%
    20:00 +32°C° 0 mm 6 m/s 756 mmHg 74%
    21:00 +30°C° 0 mm 5 m/s 757 mmHg 77%
    22:00 +30°C° 0 mm 5 m/s 757 mmHg 78%
    23:00 +30°C° 0 mm 5 m/s 757 mmHg 78%

    19 Fevereiro, Terça-feira

    Tempo Temperatura Precipitação Vento Pressão Humidade
    00:00 +30°C° 0 mm 5 m/s 757 mmHg 79%
    01:00 +30°C° 0 mm 5 m/s 756 mmHg 79%
    02:00 +30°C° 0 mm 5 m/s 756 mmHg 80%
    03:00 +29°C° 0 mm 6 m/s 755 mmHg 80%
    04:00 +29°C° 0 mm 5 m/s 756 mmHg 81%
    05:00 +29°C° 0 mm 4 m/s 756 mmHg 82%
    06:00 +29°C° 0 mm 4 m/s 756 mmHg 82%
    07:00 +32°C° 0 mm 4 m/s 757 mmHg 75%
    08:00 +33°C° 0 mm 4 m/s 757 mmHg 68%
    09:00 +34°C° 0 mm 4 m/s 758 mmHg 61%
    10:00 +36°C° 0 mm 4 m/s 757 mmHg 57%
    11:00 +37°C° 0 mm 5 m/s 757 mmHg 52%
    12:00 +39°C° 0 mm 5 m/s 756 mmHg 47%
    13:00 +37°C° 0.3 mm 5 m/s 755 mmHg 50%
    14:00 +37°C° 0.3 mm 5 m/s 755 mmHg 52%
    15:00 +36°C° 0.3 mm 5 m/s 754 mmHg 54%
    16:00 +35°C° 0 mm 5 m/s 754 mmHg 59%
    17:00 +34°C° 0 mm 5 m/s 754 mmHg 64%
    18:00 +32°C° 0 mm 5 m/s 754 mmHg 69%
    19:00 +32°C° 0 mm 5 m/s 755 mmHg 72%
    20:00 +32°C° 0 mm 5 m/s 756 mmHg 75%
    21:00 +30°C° 0 mm 5 m/s 756 mmHg 79%
    22:00 +30°C° 0 mm 5 m/s 756 mmHg 79%
    23:00 +30°C° 0 mm 6 m/s 756 mmHg 80%

    20 Fevereiro, Quarta-feira

    Tempo Temperatura Precipitação Vento Pressão Humidade
    00:00 +30°C° 0 mm 6 m/s 756 mmHg 81%
    01:00 +30°C° 0 mm 6 m/s 756 mmHg 81%
    02:00 +30°C° 0 mm 6 m/s 755 mmHg 81%
    03:00 +30°C° 0 mm 5 m/s 755 mmHg 81%
    04:00 +30°C° 0.1 mm 5 m/s 755 mmHg 81%
    05:00 +30°C° 0.1 mm 5 m/s 756 mmHg 81%
    06:00 +30°C° 0.1 mm 5 m/s 756 mmHg 81%
    07:00 +32°C° 0 mm 5 m/s 757 mmHg 76%
    08:00 +33°C° 0 mm 5 m/s 757 mmHg 70%
    09:00 +34°C° 0 mm 5 m/s 758 mmHg 64%
    10:00 +34°C° 0 mm 5 m/s 758 mmHg 63%
    11:00 +35°C° 0 mm 5 m/s 757 mmHg 61%
    12:00 +35°C° 0 mm 5 m/s 757 mmHg 59%
    13:00 +36°C° 0 mm 5 m/s 756 mmHg 57%
    14:00 +36°C° 0 mm 5 m/s 755 mmHg 55%
    15:00 +37°C° 0 mm 5 m/s 755 mmHg 53%
    16:00 +35°C° 0 mm 5 m/s 755 mmHg 59%
    17:00 +34°C° 0 mm 5 m/s 755 mmHg 65%
    18:00 +32°C° 0 mm 5 m/s 756 mmHg 70%
    19:00 +32°C° 0 mm 5 m/s 756 mmHg 73%
    20:00 +32°C° 0 mm 5 m/s 757 mmHg 76%
    21:00 +32°C° 0 mm 6 m/s 758 mmHg 78%
    22:00 +30°C° 0 mm 6 m/s 758 mmHg 79%
    23:00 +30°C° 0 mm 6 m/s 758 mmHg 80%

    21 Fevereiro, Quinta-feira

    Tempo Temperatura Precipitação Vento Pressão Humidade
    00:00 +30°C° 0 mm 6 m/s 757 mmHg 81%
    01:00 +30°C° 0 mm 6 m/s 757 mmHg 81%
    02:00 +30°C° 0 mm 6 m/s 757 mmHg 81%
    03:00 +30°C° 0 mm 6 m/s 756 mmHg 81%
    04:00 +30°C° 0 mm 6 m/s 756 mmHg 80%
    05:00 +30°C° 0 mm 6 m/s 757 mmHg 80%
    06:00 +30°C° 0 mm 6 m/s 757 mmHg 79%
    07:00 +32°C° 0 mm 6 m/s 758 mmHg 73%
    08:00 +33°C° 0 mm 6 m/s 758 mmHg 67%
    09:00 +34°C° 0 mm 6 m/s 759 mmHg 61%
    10:00 +35°C° 0.2 mm 5 m/s 758 mmHg 58%
    11:00 +36°C° 0.2 mm 5 m/s 758 mmHg 55%
    12:00 +37°C° 0.2 mm 5 m/s 757 mmHg 52%
    13:00 +38°C° 0.1 mm 6 m/s 757 mmHg 51%
    14:00 +38°C° 0.1 mm 6 m/s 756 mmHg 50%
    15:00 +38°C° 0.1 mm 6 m/s 755 mmHg 50%
    16:00 +36°C° 0.2 mm 6 m/s 756 mmHg 57%
    17:00 +34°C° 0.2 mm 6 m/s 756 mmHg 64%
    18:00 +32°C° 0.2 mm 6 m/s 756 mmHg 71%
    19:00 +32°C° 0.1 mm 6 m/s 757 mmHg 73%
    20:00 +32°C° 0.1 mm 5 m/s 758 mmHg 76%
    21:00 +30°C° 0.1 mm 5 m/s 758 mmHg 78%
    22:00 +30°C° 0 mm 5 m/s 758 mmHg 79%
    23:00 +30°C° 0 mm 6 m/s 758 mmHg 80%
    Mostrar mais